SCP
0 0 0 0 0 0 0 0 0 0 0 0 0 0 0 0 0 0 0 0 0 0 0 0 0 0 0 0 0 0 0 0 0 0 0 0 0 0
0 0 0 0 0 0 0 0 0 0 0 0 0 0 0 0 0 0 0 0 0 0 0 0 0 0 0 0 0 0 0 0 0 0 0 0 0 0
0 0 0 0 0 0 0 0 0 0 0 0 0 0 0 0 0 0 0 0 0 0 0 0 0 0 0 0 0 0 0 0 0 0 0 0 0 0
0 0 0 0 0 0 0 0 0 0 0 0 0 0 0 0 0 0 0 0 0 0 0 0 0 0 0 0 0 0 0 0 0 0 0 0 0 0
0 0 0 0 0 0 0 0 0 0 0 0 0 0 0 0 0 0 0 0 0 0 0 0 0 0 0 0 0 0 0 0 0 0 0 0 0 0
0 0 0 0 0 0 0 0 0 0 0 0 0 0 0 0 0 0 0 0 0 0 0 0 0 0 0 0 0 0 0 0 0 0 0 0 0 0
0 0 0 0 0 0 0 0 0 0 0 0 0 0 0 0 0 0 0 0 0 0 0 0 0 0 0 0 0 0 0 0 0 0 0 0 0 0
0 0 0 0 0 0 0 0 0 0 0 0 0 0 0 0 0 0 0 0 0 0 0 0 0 0 0 0 0 0 0 0 0 0 0 0 0 0
0 0 0 0 0 0 0 0 0 0 0 -0 -0 -0 -0 0 0 0 0 0 0 0 0 0 0 0 0 0 0 0 0 0 0 0 0 0 0 0
0 0 0 0 0 0 0 0 0 0 0 -0 -0 0 0 0 0 0 0 0 0 0 0 0 0 0 0 0 0 0 0 0 0 0 0 0 0 0
0 0 0 0 0 0 0 0 0 0 0 0 0 0 0 0 0 0 0 0 0 0 0 0 0 0 0 0 0 0 0 0 0 0 0 0 0 0
0 0 0 0 0 0 0 0 0 0 0 0 0 0 0 0 0 0 0 0 0 0 0 0 0 0 0 0 0 0 0 0 0 0 0 0 0 0
0 0 0 0 0 0 0 0 0 0 0 0 0 0 0 0 0 0 0 0 0 0 0 0 0 0 0 0 0 0 0 0 0 0 0 0 0 0
0 0 0 0 0 0 0 0 0 0 0 0 0 0 0 0 0 0 0 0 0 0 0 0 0 0 0 0 0 0 0 0 0 0 0 0 0 0
0 0 0 0 0 0 0 0 0 0 0 0 0 0 0 0 0 0 0 0 0 0 0 0 0 0 0 0 0 0 0 0 0 0 0 0 0 0
0 0 0 0 0 0 0 0 0 0 0 0 0 0 0 0 0 0 0 0 0 0 0 0 0 0 0 0 0 0 0 0 0 0 0 0 0 0
0 0 0 0 0 0 0 0 0 0 0 0 0 0 0 0 0 0 0 0 0 0 0 0 0 0 0 0 0 0 0 0 0 -0 0 0 0 0
0 0 0 0 0 0 0 0 0 0 0 0 0 0 0 0 0 0 0 0 0 0 0 0 0 0 0 0 0 0 0 0 0 0 0 0 0 0
0 0 0 0 0 0 0 0 0 0 0 0 0 0 0 0 0 0 0 0 0 0 0 0 0 0 0 0 0 0 0 0 0 0 0 0 0 0
0 0 0 0 0 0 0 0 0 0 0 0 0 0 0 0 0 0 0 0 0 0 0 0 0 0 0 0 0 0 0 0 0 0 0 0 0 0
0 0 0 0 0 0 0 0 0 0 0 0 0 0 0 0 0 0 0 0 0 0 0 0 0 0 0 0 0 0 0 0 0 0 0 0 0 0
0 0 0 0 0 0 0 0 0 0 0 0 0 0 0 0 0 0 0 0 0 0 0 0 0 0 0 0 0 0 0 0 0 0 0 0 0 0
0 0 0 0 0 0 0 0 0 0 0 0 0 0 0 0 0 0 0 0 0 0 0 0 0 0 0 0 0 0 0 0 0 0 0 0 0 0
Wind_Speed
1 1 1 2 2 2 2 2 2 1 3 3 2 2 2 2 3 2 2 5 6 6 7 7 8 8 9 9 9 9 10 10 10 11 11 12 13 13
1 0 1 1 1 1 1 1 2 3 3 3 2 3 3 3 4 2 3 6 6 7 7 7 8 8 8 8 8 9 9 10 10 11 11 12 12 13
0 1 1 1 0 1 1 1 1 1 2 3 2 2 2 3 3 3 3 3 3 7 7 7 7 7 8 8 8 9 9 10 10 11 11 12 12 12
1 1 1 1 1 1 1 1 1 1 2 3 3 2 3 3 3 3 3 3 3 6 7 7 7 7 7 7 8 9 9 9 10 10 10 11 11 11
2 2 2 1 1 2 2 1 1 1 1 2 3 2 2 2 2 3 4 3 4 4 6 6 7 7 7 7 8 9 9 9 10 10 10 10 10 11
2 2 2 3 3 3 2 2 2 1 1 1 2 2 2 2 1 2 3 3 3 4 4 5 5 6 7 7 8 8 8 9 10 10 10 10 10 10
2 2 3 3 4 3 2 2 2 1 1 1 2 2 3 2 2 2 3 3 3 2 2 3 3 2 4 6 7 7 7 8 9 10 10 10 10 10
2 3 3 2 3 3 3 3 3 3 3 2 2 3 4 3 2 2 2 2 3 2 1 3 2 3 3 3 5 7 7 8 8 8 9 9 10 10
1 2 2 2 1 1 2 2 2 4 4 4 4 4 4 4 2 2 2 2 4 3 1 3 2 3 4 4 6 7 7 7 7 7 8 8 8 9
2 2 2 2 1 1 1 2 3 3 3 2 4 5 5 4 4 4 4 3 4 3 1 2 3 3 4 3 5 7 6 6 6 7 7 7 7 8
2 1 1 2 3 1 0 2 4 4 4 3 4 5 6 6 4 1 1 1 3 3 1 2 2 2 2 3 4 6 6 5 6 6 6 7 7 6
2 2 3 3 3 2 1 1 3 4 4 4 4 5 4 5 4 3 3 2 2 3 3 1 2 1 2 3 3 3 3 5 6 6 6 6 6 3
2 2 3 4 4 4 2 2 5 4 2 2 3 3 3 3 3 2 3 3 3 3 3 1 1 1 1 3 3 3 2 2 2 3 4 5 5 4
2 2 2 4 4 5 3 3 4 2 1 1 2 2 3 3 3 3 3 3 4 4 4 2 2 2 1 2 3 3 3 2 2 2 3 3 4 5
1 3 3 4 4 3 3 3 1 0 0 1 2 3 3 3 3 3 3 2 2 3 2 1 2 1 1 2 3 2 3 3 2 2 2 2 2 2
2 4 5 4 3 3 3 2 1 1 1 2 3 3 3 2 2 2 2 2 1 3 3 2 1 1 1 2 2 3 3 2 2 3 3 3 2 2
1 2 2 2 3 2 2 2 2 1 2 2 2 2 2 2 2 2 1 1 1 2 3 3 2 1 1 2 2 3 3 3 3 3 3 3 3 3
1 1 2 2 2 2 2 2 2 2 2 2 2 2 2 2 2 2 1 1 1 2 2 2 2 2 2 2 2 2 2 3 3 3 2 3 4 4
1 1 1 2 2 2 2 2 2 2 2 2 2 2 2 2 1 1 1 1 2 2 2 2 1 1 2 3 4 2 2 3 3 3 3 2 3 4
0 1 2 2 2 2 2 2 2 2 2 2 2 2 2 2 2 2 1 1 2 2 2 2 1 1 2 3 3 4 3 3 3 3 3 3 3 5
1 2 2 2 2 1 2 1 1 1 2 2 2 2 2 2 2 2 1 2 2 2 2 3 4 4 2 1 2 4 4 4 4 3 3 3 3 3
2 2 2 1 1 1 1 1 1 1 2 2 2 2 2 2 2 2 1 1 2 2 3 3 3 2 1 1 3 4 4 4 4 4 3 3 2 2
2 2 2 2 1 1 1 1 1 1 1 2 2 3 2 2 2 2 2 2 2 2 3 3 3 2 2 2 3 3 4 4 3 3 4 5 4 5
Wind_Direction
213 224 245 247 223 207 184 170 169 259 285 280 291 295 297 284 294 297 283 271 266 262 257 252 251 252 252 251 251 251 249 245 243 243 244 243 242 242
198 169 273 272 278 221 187 185 176 188 244 266 260 274 291 304 298 283 272 283 275 269 263 258 255 252 252 254 252 253 250 244 241 244 246 244 242 241
233 193 264 270 260 273 224 180 182 167 232 277 273 280 288 290 302 296 286 278 275 271 271 268 260 254 257 256 252 251 250 246 243 243 246 247 242 240
236 231 254 256 240 241 232 220 225 197 188 262 289 289 281 277 287 293 294 288 278 279 277 272 266 260 260 257 256 254 252 247 244 241 242 246 246 242
206 206 226 210 237 238 236 237 242 246 197 223 272 280 286 298 310 303 301 295 290 289 283 277 274 270 267 264 262 260 253 249 248 245 241 240 242 242
223 213 216 210 218 228 233 239 235 247 243 240 264 280 286 294 299 294 304 302 300 304 304 300 291 283 280 276 271 266 254 246 244 243 240 238 238 239
263 248 242 238 230 227 227 230 219 225 237 242 265 286 290 300 289 275 286 299 295 280 294 300 300 294 290 281 273 263 255 252 246 241 239 238 238 239
269 283 277 262 266 267 266 243 212 209 223 229 250 262 268 262 262 274 281 318 303 291 292 294 292 287 284 275 269 263 258 253 248 245 243 240 238 239
252 278 287 286 271 270 304 319 290 259 227 210 229 248 251 249 246 268 258 248 254 265 287 286 288 285 286 291 283 275 268 260 254 249 246 245 242 240
260 254 249 276 281 264 309 331 312 294 269 233 224 243 249 248 228 226 236 259 273 274 214 261 285 281 295 298 295 288 283 273 261 257 251 247 246 244
289 285 252 257 272 272 44 315 317 310 308 295 268 267 271 269 248 221 272 279 288 284 237 216 269 287 297 292 293 295 291 289 277 270 263 257 253 250
305 302 278 260 272 260 218 242 285 287 306 322 321 315 303 297 281 222 215 225 254 277 261 211 259 294 309 297 299 311 312 301 286 278 272 266 259 242
281 291 288 281 286 286 266 226 242 261 282 291 302 309 317 314 302 275 228 206 219 248 252 195 240 239 229 287 306 304 303 301 303 292 280 272 263 234
261 269 278 296 305 310 308 288 285 291 302 316 313 304 302 302 297 290 271 248 231 237 254 207 212 218 234 275 287 303 313 304 297 289 285 279 268 254
283 290 300 315 323 324 325 316 313 338 306 288 282 277 273 279 293 305 310 304 303 292 290 244 216 229 212 236 264 279 297 303 300 293 286 275 263 258
324 320 323 327 334 320 325 332 319 250 228 248 266 275 288 302 300 290 290 306 323 317 320 310 256 205 235 259 250 275 277 275 294 293 285 283 278 258
329 344 356 353 351 339 328 316 312 322 302 292 288 295 298 298 291 293 286 300 312 307 318 326 323 282 223 230 273 285 290 291 284 287 289 288 286 277
72 355 327 323 310 300 302 306 307 297 287 288 296 297 296 292 295 304 303 290 286 291 292 294 323 349 349 327 245 262 283 285 293 294 288 283 291 295
71 314 304 304 299 299 289 276 284 287 285 293 299 305 305 300 294 301 307 304 296 293 288 286 309 356 334 313 302 269 257 284 298 302 292 268 270 283
302 278 281 278 279 291 290 283 293 310 322 322 320 320 318 314 311 306 301 299 297 304 312 312 298 263 242 259 277 293 281 264 277 286 293 294 283 285
288 281 278 278 283 283 283 290 299 311 325 328 324 320 317 316 311 305 310 319 308 303 306 299 284 282 273 324 315 306 301 283 257 258 271 288 298 304
270 269 277 280 280 282 289 297 313 325 336 328 316 316 315 309 304 304 302 297 291 288 290 292 298 315 337 305 291 292 304 316 318 309 284 246 250 264
256 253 258 265 265 274 283 297 307 307 308 309 310 310 310 306 302 302 291 279 281 289 294 302 313 320 307 286 286 293 304 313 324 337 330 325 294 267